Location: Fort Worth, Tx
(32.7431°N, 97.3695°W)
Time: 10:18:31
(UTC-04:00)

Explorer 11/Cluster Stage 4 - Pass Details

Date: 26 February 2024
Orbit: 465 x 1219 km, 28.8° (Epoch: 24 April)

Event Time Altitude Azimuth Distance (km) Brightness Sun altitude
Exits shadow 06:20:47 35° 233° (SW) 1,541 7.6 -21.9°
Maximum altitude 06:22:28 41° 200° (SSW) 1,354 7.5 -21.5°
Drops below altitude 10° 06:27:57 10° 132° (SE) 2,419 9.7 -20.4°
Sets 06:30:21 0° 124° (SE) 3,228 10.6 -19.9°
